Location: York
(31.8935°S, 116.7682°E)
Time: 19:00:52
(UTC+08:00)

deb Explorer IX - Pass Details

Date: 25 September 2022
Orbit: 533 x 1057 km, 38.8° (Epoch: 30 November)

Event Time Altitude Azimuth Distance (km) Brightness Sun altitude
Rises 05:00:12 0° 268° (W) 2,721 - -13.3°
Reaches altitude 10° 05:03:52 10° 302° (WNW) 1,885 - -12.5°
Exits shadow 05:04:57 11° 317° (NW) 1,815 ? -12.3°
Maximum altitude 05:05:20 12° 322° (NW) 1,816 ? -12.2°
Drops below altitude 10° 05:06:51 10° 342° (NNW) 1,952 ? -11.9°
Sets 05:10:51 0° 15° (NNE) 2,973 ? -11.0°
